Search for airport 
image banner adimage banner ad
image banner ad

LECART - Cartama (forestal)

Located in , Spain

ICAO - , IATA -

Data provided by Airmate  

General information

Coordinates: N36°43'24" W4°41'54"
Elevation is 656 feet MSL.
 
Rated:
View ratings: [VIEW]


View others Airports in Málaga

Operational data

Open for public use
Current time UTC:
Current local time:
Weather at : LEMG - Malaga/Costa Del Sol ( 19 km )
METAR: LEMG 051300Z 08004G15KT 9999 SCT055 30/14 Q1012 NOSIG
TAF: TAF LEMG 051100Z 0512/0612 29008KT 9999 FEW040 TX31/0514Z TN19/0605Z BECMG 0610/0612 19010KT
View NOTAMs / SUP AIP / TFR affecting this airport [VIEW]
Communications frequencies: [VIEW]

Runways:

RWY identifierQFULength (ft)Width (ft)SurfaceLDA (ft)
0822970ASPH
2622970ASPH

Airport contact information

Address: Spain

Satellite view of LECART